Location: Ambatotampy
(18.8181°S, 47.6186°E)
Time: 19:32:22
(UTC+00:00)

BREEZE-M DEB (TANK) - Pass Details

Date: 21 January 2021
Orbit: 563 x 17155 km, 49.6° (Epoch: 07 March)

Event Time Altitude Azimuth Distance (km) Brightness Sun altitude
Exits shadow 00:44:57 59° 336° (NNW) 796 3.3 -22.8°
Maximum altitude 00:45:40 80° 48° (NE) 664 3.1 -22.7°
Drops below altitude 10° 00:49:06 10° 136° (SE) 1,863 6.6 -22.0°
Sets 00:51:04 0° 137° (SE) 2,853 7.8 -21.6°
